Flag for Brazil Weather past 2 weeks in Porto Alegre, Rio Grande do Sul, Brazil

Now
50 °F

Clear.


Feels Like: 50 °F
Forecast: 48 / 71 °F
Wind: 1 mph from North

Location: Porto Alegre Aero-Porto

Current Time: Aug 28, 2015 at 4:40:51 AM

Latest Report: Aug 28, 2015 at 4:00 AM


Visibility: 10 mi

Pressure: 30.12 "Hg

Humidity: 94%

Dew point: 48 °F

Location of Porto AlegreLocation

Historic Weather in Porto Alegre — Graph

°F

Porto Alegre temperature yesterday

Maximum temperature yesterday: 73 °F (at 3:00 PM)
Minimum temperature yesterday: 57 °F (at 10:00 PM)
Average temperature yesterday: 66 °F

Past Weeks' High & Low Weather Summary

 TemperatureHumidityPressure
High84 °F (Aug 13, 1:00 PM)100% (Aug 14, 6:00 AM)30.27 "Hg (Aug 14, 6:00 AM)
Low45 °F (Aug 26, 5:00 PM)29% (Aug 27, 4:00 PM)29.77 "Hg (Aug 22, 4:00 PM)
Average66 °F75%30.02 "Hg
* Reported Aug 13 3:00 AM — Aug 28 3:00 AM, Porto Alegre, Weather by CustomWeather, © 2015

Note: Actual official high and low records may vary slightly from our data, if they occured in-between our weather recording intervals... More about our weather records

Advertising

Porto Alegre weather history for previous 24 hours

 ConditionsComfort  
Time TempWeatherWind HumidityBarometerVisibility
3:00 AM
Fri, Aug 28
52 °FClear.No wind88%30.12 "Hg10 mi
2:00 AM54 °FClear.5 mph82%30.12 "Hg10 mi
1:00 AM54 °FClear.3 mph82%30.12 "Hg10 mi
12:00 AM55 °FClear.3 mph77%30.12 "Hg10 mi
11:00 PM
Thu, Aug 27
57 °FClear.2 mph72%30.12 "Hg10 mi
10:00 PM57 °FClear.1 mph72%30.09 "Hg10 mi
9:00 PM59 °FClear.7 mph63%30.07 "Hg10 mi
8:00 PM63 °FClear.9 mph56%30.04 "Hg10 mi
7:00 PM66 °FClear.12 mph49%30.04 "Hg10 mi
6:00 PM68 °FPassing clouds.18 mph40%30.01 "HgN/A
5:00 PM72 °FScattered clouds.20 mph36%29.98 "HgN/A
4:00 PM73 °FScattered clouds.21 mph29%29.98 "HgN/A
3:00 PM73 °FPassing clouds.23 mph33%29.95 "HgN/A
2:00 PM72 °FPassing clouds.17 mph50%29.95 "HgN/A
1:00 PM70 °FScattered clouds.18 mph53%29.98 "HgN/A
12:00 PM70 °FBroken clouds.17 mph57%30.01 "HgN/A
11:00 AM68 °FScattered clouds.10 mph64%30.01 "HgN/A
10:00 AM66 °FPassing clouds.10 mph68%29.98 "HgN/A
9:00 AM64 °FPassing clouds.12 mph78%29.98 "HgN/A
8:00 AM63 °FPassing clouds.10 mph83%29.98 "HgN/A
7:00 AM63 °FScattered clouds.13 mph88%29.95 "HgN/A
6:00 AM64 °FOvercast.12 mph88%29.89 "HgN/A
5:00 AM66 °FPassing clouds.10 mph88%29.86 "HgN/A
4:00 AM66 °FOvercast.8 mph83%29.83 "HgN/A
Weather by CustomWeather, © 2015

See weather overviewHow to use our weather pages